NJUST-1 (42722 NORAD) Tracking and Keplerian Element Data

This shows tracking and keplerian element data for the satellite.

Feedback or suggestion? Click here.




ElementValue
Catalog42722
NameNJUST-1
Epoch Orbit8446
Epoch Day320.22996495
Epoch Year2018
RAAN304.6136
Inclination51.6367
Eccentricity0.0006559
Argument of Perigee80.6077
Mean Anonmoly19.1239
Mean Motion15.73597372
Decay Rate0.00027054
L11 42722U 98067MB 18320.22996495 .00027054 00000-0 19277-3 0 9994
L22 42722 51.6367 304.6136 0006559 80.6077 19.1239 15.73597372 84469

Live tracking and technical data element details for NJUST-1 (NORAD 42722). NJUST-1 can be tracked NOW for your location showing map with azimuth and elevation plus other details from your city location.

Track the satellite on the map from your city or location and see movement details for azimuth, elevation, latitude, longitude, range, height, and movement on the map or in text.







IsCatalogInMostPopularTable: catalog: 42722, numindb: 156
Update: records affected: 1



GetName: 42722 NJUST-1

Hit Count: updated at: Fri, 16 Nov 2018 11:49:45 GMT